WA9NNN-10 Weather Reports


Display with metric or nautical units.
time (UTC)temp
F
wind
direction
speed
MPH
gust
MPH
rain 1hr
in
rain 24hr
in
rain mn
in
humidity
%
barometer
mb
20260507020137 49 299 3.0 5.0 0.00 0.00 0.00 43 1014.6
20260507015636 50 302 4.0 4.0 0.00 0.00 0.00 43 1014.7
20260507015137 50 304 2.0 5.0 0.00 0.00 0.00 43 1014.7
20260507014636 50 271 4.0 4.0 0.00 0.00 0.00 43 1014.6
20260507014137 50 269 2.0 3.0 0.00 0.00 0.00 44 1014.6
20260507013636 50 292 1.0 4.0 0.00 0.00 0.00 43 1014.5
20260507013138 50 297 3.0 5.0 0.00 0.00 0.00 43 1014.5
20260507012636 51 274 6.0 5.0 0.00 0.00 0.00 43 1014.5
20260507012137 51 278 8.0 5.0 0.00 0.00 0.00 43 1014.4
20260507011636 51 289 4.0 4.0 0.00 0.00 0.00 43 1014.4
20260507011137 51 270 4.0 5.0 0.00 0.00 0.00 43 1014.3
20260507010636 51 269 3.0 5.0 0.00 0.00 0.00 43 1014.3
20260507010137 52 306 8.0 6.0 0.00 0.00 0.00 42 1014.2
20260507005636 52 286 4.0 5.0 0.00 0.00 0.00 42 1014.3
20260507005137 52 279 9.0 5.0 0.00 0.00 0.00 42 1014.2
20260507004636 53 335 4.0 5.0 0.00 0.00 0.00 42 1014.2
20260507004137 53 345 6.0 5.0 0.00 0.00 0.00 41 1014.0
20260507003636 53 258 7.0 3.0 0.00 0.00 0.00 41 1014.1
20260507003137 54 270 2.0 3.0 0.00 0.00 0.00 42 1014.0
20260507002636 54 240 1.0 4.0 0.00 0.00 0.00 41 1013.9
20260507002137 54 271 4.0 5.0 0.00 0.00 0.00 40 1013.8
20260507001636 54 349 4.0 5.0 0.00 0.00 0.00 40 1013.7
20260507001136 54 236 7.0 4.0 0.00 0.00 0.00 41 1013.7
20260507000636 54 271 3.0 5.0 0.00 0.00 0.00 41 1013.6
20260507000137 54 300 4.0 5.0 0.00 0.00 0.00 41 1013.5
20260506235636 54 325 7.0 5.0 0.00 0.00 0.00 40 1013.5
20260506235136 54 281 6.0 6.0 0.00 0.00 0.00 40 1013.4
20260506234638 54 290 5.0 6.0 0.00 0.00 0.00 40 1013.4
20260506234137 55 283 6.0 5.0 0.00 0.00 0.00 39 1013.4
20260506233636 55 323 4.0 5.0 0.00 0.00 0.00 39 1013.4
20260506233137 55 249 2.0 6.0 0.00 0.00 0.00 39 1013.3
20260506232636 55 271 3.0 7.0 0.00 0.00 0.00 39 1013.3
20260506232136 55 324 6.0 6.0 0.00 0.00 0.00 39 1013.4
20260506231636 56 302 8.0 4.0 0.00 0.00 0.00 38 1013.2
20260506231136 56 333 4.0 5.0 0.00 0.00 0.00 39 1013.3
20260506230637 56 307 6.0 4.0 0.00 0.00 0.00 39 1013.0
20260506230137 56 260 4.0 4.0 0.00 0.00 0.00 39 1013.0
20260506225636 56 267 3.0 5.0 0.00 0.00 0.00 40 1013.1
20260506225137 56 238 5.0 6.0 0.00 0.00 0.00 39 1013.1
20260506224637 56 319 9.0 5.0 0.00 0.00 0.00 39 1013.0
20260506224137 56 242 4.0 4.0 0.00 0.00 0.00 39 1013.1
20260506223636 56 220 6.0 4.0 0.00 0.00 0.00 39 1013.0
20260506223137 56 231 6.0 4.0 0.00 0.00 0.00 38 1013.0
20260506222636 57 250 4.0 5.0 0.00 0.00 0.00 39 1012.9
20260506222137 57 317 2.0 6.0 0.00 0.00 0.00 38 1012.9
20260506221636 57 288 1.0 6.0 0.00 0.00 0.00 38 1012.9
20260506221137 57 340 9.0 6.0 0.00 0.00 0.00 38 1012.8
20260506220636 57 283 16.0 5.0 0.00 0.00 0.00 37 1012.8
20260506220136 58 226 6.0 5.0 0.00 0.00 0.00 37 1012.7
20260506215636 58 226 5.0 5.0 0.00 0.00 0.00 37 1012.7
20260506215137 58 230 4.0 5.0 0.00 0.00 0.00 37 1012.7
20260506214637 59 236 5.0 4.0 0.00 0.00 0.00 36 1012.7
20260506214136 59 248 5.0 4.0 0.00 0.00 0.00 37 1012.7
20260506213636 59 243 2.0 5.0 0.00 0.00 0.00 36 1012.6
20260506213136 59 308 3.0 4.0 0.00 0.00 0.00 35 1012.7
20260506212636 59 307 5.0 4.0 0.00 0.00 0.00 36 1012.6
20260506212136 59 8 3.0 5.0 0.00 0.00 0.00 35 1012.6
20260506211636 60 233 6.0 5.0 0.00 0.00 0.00 33 1012.7
20260506211136 60 289 5.0 5.0 0.00 0.00 0.00 31 1012.7
20260506210637 60 239 6.0 5.0 0.00 0.00 0.00 32 1012.6
20260506210137 60 202 4.0 5.0 0.00 0.00 0.00 32 1012.6
20260506205636 60 297 4.0 5.0 0.00 0.00 0.00 33 1012.6
20260506205136 60 142 7.0 5.0 0.00 0.00 0.00 32 1012.7
20260506204636 61 273 6.0 4.0 0.00 0.00 0.00 32 1012.7
20260506204136 61 241 1.0 4.0 0.00 0.00 0.00 32 1012.6
20260506203636 60 221 7.0 3.0 0.00 0.00 0.00 33 1012.8
20260506203138 59 283 3.0 4.0 0.00 0.00 0.00 34 1012.7
20260506202636 59 276 3.0 5.0 0.00 0.00 0.00 33 1012.8
20260506202136 60 266 7.0 4.0 0.00 0.00 0.00 33 1012.8
20260506201636 60 248 5.0 4.0 0.00 0.00 0.00 34 1012.9
20260506201136 60 212 1.0 4.0 0.00 0.00 0.00 34 1013.0
20260506200636 61 295 5.0 3.0 0.00 0.00 0.00 33 1013.1
20260506200136 61 194 3.0 3.0 0.00 0.00 0.00 34 1013.1
20260506195637 60 259 1.0 4.0 0.00 0.00 0.00 34 1013.2
20260506195136 60 272 6.0 5.0 0.00 0.00 0.00 35 1013.2
20260506194636 60 143 5.0 5.0 0.00 0.00 0.00 35 1013.3
20260506194136 60 202 8.0 4.0 0.00 0.00 0.00 34 1013.3
20260506193636 59 246 3.0 4.0 0.00 0.00 0.00 35 1013.3
20260506193136 59 314 3.0 5.0 0.00 0.00 0.00 35 1013.3
20260506192637 59 213 8.0 5.0 0.00 0.00 0.00 35 1013.4
20260506192137 59 221 9.0 4.0 0.00 0.00 0.00 35 1013.4
20260506191637 59 230 2.0 4.0 0.00 0.00 0.00 34 1013.3
20260506191137 59 233 4.0 4.0 0.00 0.00 0.00 36 1013.3
20260506190637 59 229 7.0 3.0 0.00 0.00 0.00 34 1013.4
20260506190137 59 238 4.0 2.0 0.00 0.00 0.00 36 1013.4
20260506185637 58 328 1.0 4.0 0.00 0.00 0.00 37 1013.4
20260506185137 58 285 1.0 4.0 0.00 0.00 0.00 36 1013.4
20260506184637 58 299 3.0 3.0 0.00 0.00 0.00 37 1013.4
20260506184137 58 223 1.0 4.0 0.00 0.00 0.00 36 1013.3
20260506183637 58 324 3.0 3.0 0.00 0.00 0.00 36 1013.4
20260506183137 59 279 2.0 4.0 0.00 0.00 0.00 35 1013.4
20260506182637 59 218 2.0 4.0 0.00 0.00 0.00 34 1013.3
20260506182137 59 237 3.0 4.0 0.00 0.00 0.00 34 1013.4
20260506181636 60 238 3.0 4.0 0.00 0.00 0.00 34 1013.3
20260506181137 60 298 4.0 5.0 0.00 0.00 0.00 34 1013.4
20260506180637 60 233 2.0 5.0 0.00 0.00 0.00 33 1013.3
20260506180137 60 252 7.0 4.0 0.00 0.00 0.00 33 1013.4
20260506175638 61 211 4.0 4.0 0.00 0.00 0.00 33 1013.4
20260506175137 61 335 4.0 5.0 0.00 0.00 0.00 32 1013.5
20260506174637 62 302 8.0 4.0 0.00 0.00 0.00 32 1013.5
20260506174137 62 311 9.0 4.0 0.00 0.00 0.00 33 1013.6
20260506173636 61 247 2.0 4.0 0.00 0.00 0.00 33 1013.6
20260506173137 61 229 8.0 4.0 0.00 0.00 0.00 32 1013.6
20260506172638 62 283 4.0 4.0 0.00 0.00 0.00 32 1013.5
20260506172137 62 260 2.0 4.0 0.00 0.00 0.00 32 1013.5
20260506171637 62 188 10.0 4.0 0.00 0.00 0.00 31 1013.6
20260506171137 63 262 3.0 4.0 0.00 0.00 0.00 31 1013.7
20260506170637 63 259 10.0 4.0 0.00 0.00 0.00 32 1013.7
20260506170137 63 214 3.0 5.0 0.00 0.00 0.00 31 1013.7
20260506165637 63 235 5.0 4.0 0.00 0.00 0.00 32 1013.6
20260506165137 61 300 5.0 4.0 0.00 0.00 0.00 32 1013.5
20260506164637 61 282 3.0 4.0 0.00 0.00 0.00 33 1013.6
20260506164137 61 264 5.0 4.0 0.00 0.00 0.00 32 1013.6
20260506163636 60 252 3.0 3.0 0.00 0.00 0.00 34 1013.5
20260506163137 59 214 6.0 4.0 0.00 0.00 0.00 34 1013.5
20260506162637 59 235 3.0 4.0 0.00 0.00 0.00 34 1013.6
20260506162137 59 1 2.0 3.0 0.00 0.00 0.00 35 1013.6
20260506161637 58 329 3.0 4.0 0.00 0.00 0.00 34 1013.6
20260506161137 58 307 2.0 5.0 0.00 0.00 0.00 34 1013.6
20260506160637 58 306 3.0 5.0 0.00 0.00 0.00 33 1013.5
20260506160138 59 259 4.0 4.0 0.00 0.00 0.00 33 1013.5
20260506155637 58 254 5.0 4.0 0.00 0.00 0.00 33 1013.6
20260506155137 57 278 5.0 3.0 0.00 0.00 0.00 34 1013.6
20260506154637 57 295 6.0 3.0 0.00 0.00 0.00 35 1013.6
20260506154137 57 0 0.0 3.0 0.00 0.00 0.00 35 1013.6
20260506153636 57 139 3.0 3.0 0.00 0.00 0.00 34 1013.6
20260506153137 57 255 1.0 3.0 0.00 0.00 0.00 34 1013.7
20260506152636 57 297 1.0 4.0 0.00 0.00 0.00 33 1013.7
20260506152137 57 272 5.0 4.0 0.00 0.00 0.00 34 1013.7
20260506151637 57 275 2.0 4.0 0.00 0.00 0.00 36 1013.8
20260506151137 56 355 5.0 5.0 0.00 0.00 0.00 36 1013.8
20260506150636 56 259 3.0 4.0 0.00 0.00 0.00 35 1013.7
20260506150137 56 309 4.0 3.0 0.00 0.00 0.00 34 1013.8
20260506145636 57 292 2.0 3.0 0.00 0.00 0.00 36 1013.8
20260506145137 57 263 4.0 3.0 0.00 0.00 0.00 36 1013.9
20260506144636 57 259 4.0 3.0 0.00 0.00 0.00 35 1013.9
20260506144137 57 279 2.0 3.0 0.00 0.00 0.00 37 1013.9
20260506143637 57 198 3.0 3.0 0.00 0.00 0.00 37 1013.8
20260506143137 56 154 3.0 2.0 0.00 0.00 0.00 37 1013.8
20260506142636 56 222 2.0 2.0 0.00 0.00 0.00 39 1013.9
20260506142137 55 255 1.0 1.0 0.00 0.00 0.00 40 1013.9
20260506141636 55 200 1.0 1.0 0.00 0.00 0.00 41 1013.8
20260506141137 55 201 2.0 2.0 0.00 0.00 0.00 40 1013.8
20260506140637 54 257 1.0 2.0 0.00 0.00 0.00 41 1013.8
20260506140137 54 222 1.0 2.0 0.00 0.00 0.00 41 1013.7
20260506135636 54 0 0.0 1.0 0.00 0.02 0.00 43 1013.7
20260506135138 53 243 1.0 1.0 0.00 0.02 0.00 43 1013.5
20260506134636 53 326 1.0 1.0 0.00 0.02 0.00 45 1013.4
20260506134137 53 214 2.0 1.0 0.00 0.02 0.00 47 1013.4
20260506133637 52 158 1.0 1.0 0.00 0.02 0.00 47 1013.3
20260506133137 52 168 1.0 1.0 0.00 0.02 0.00 48 1013.3
20260506132636 52 169 1.0 1.0 0.00 0.02 0.00 48 1013.2
20260506132137 51 168 1.0 1.0 0.00 0.02 0.00 51 1013.2
20260506131637 51 69 1.0 0.0 0.00 0.02 0.00 53 1013.3
20260506131137 50 69 1.0 0.0 0.00 0.02 0.00 54 1013.3
20260506130636 50 0 0.0 0.0 0.00 0.02 0.00 55 1013.1
20260506130137 49 69 2.0 0.0 0.00 0.02 0.00 57 1013.1
20260506125636 49 0 0.0 0.0 0.00 0.08 0.00 57 1013.1
20260506125137 49 0 0.0 1.0 0.00 0.08 0.00 57 1013.0
20260506124636 48 49 1.0 1.0 0.00 0.08 0.00 59 1013.0
20260506124137 48 0 0.0 1.0 0.00 0.08 0.00 60 1012.9
20260506123636 48 0 0.0 0.0 0.00 0.08 0.00 61 1012.9
20260506123137 48 0 0.0 0.0 0.00 0.08 0.00 61 1012.8
20260506122636 48 0 0.0 1.0 0.00 0.08 0.00 61 1012.7
20260506122137 47 349 2.0 1.0 0.00 0.08 0.00 62 1012.7
20260506121637 47 349 1.0 1.0 0.00 0.08 0.00 63 1012.7
20260506121137 47 349 1.0 1.0 0.00 0.08 0.00 63 1012.7
20260506120636 47 349 1.0 1.0 0.00 0.08 0.00 64 1012.7
20260506120137 46 64 2.0 1.0 0.00 0.08 0.00 65 1012.7
20260506115636 46 64 1.0 1.0 0.00 0.08 0.00 66 1012.7
20260506115137 46 0 0.0 1.0 0.00 0.08 0.00 66 1012.6
20260506114636 45 64 1.0 0.0 0.00 0.08 0.00 67 1012.5
20260506114137 45 64 1.0 0.0 0.00 0.08 0.00 67 1012.4
20260506113636 45 0 0.0 0.0 0.00 0.08 0.00 67 1012.3
20260506113137 45 0 0.0 0.0 0.00 0.08 0.00 67 1012.3
20260506112636 44 0 0.0 0.0 0.00 0.08 0.00 66 1012.3
20260506112138 44 64 2.0 0.0 0.00 0.08 0.00 65 1012.4
20260506111637 44 0 0.0 0.0 0.00 0.08 0.00 65 1012.3
20260506111137 44 0 0.0 0.0 0.00 0.08 0.00 64 1012.3
20260506110636 44 0 0.0 0.0 0.00 0.08 0.00 64 1012.2
20260506110137 44 0 0.0 0.0 0.00 0.08 0.00 63 1012.2
20260506105636 44 0 0.0 0.0 0.00 0.08 0.00 63 1012.1
20260506105137 44 0 0.0 0.0 0.00 0.08 0.00 61 1012.0
20260506104636 45 64 1.0 0.0 0.00 0.08 0.00 60 1011.9
20260506104137 45 0 0.0 0.0 0.00 0.08 0.00 60 1011.7
20260506103636 45 0 0.0 0.0 0.00 0.08 0.00 60 1011.7
20260506103137 45 0 0.0 0.0 0.00 0.08 0.00 60 1011.5
20260506102636 46 0 0.0 0.0 0.00 0.08 0.00 60 1011.5
20260506102137 46 0 0.0 0.0 0.00 0.08 0.00 60 1011.4
20260506101636 46 0 0.0 0.0 0.00 0.08 0.00 60 1011.4
20260506101136 46 0 0.0 1.0 0.00 0.08 0.00 60 1011.4
20260506100636 46 0 0.0 1.0 0.00 0.08 0.00 59 1011.6
20260506100137 46 0 0.0 1.0 0.00 0.08 0.00 59 1011.5
20260506095636 46 75 4.0 1.0 0.00 0.08 0.00 58 1011.4
20260506095136 46 0 0.0 1.0 0.00 0.08 0.00 58 1011.4
20260506094636 46 1 2.0 1.0 0.00 0.08 0.00 58 1011.5
20260506094136 46 5 1.0 2.0 0.00 0.08 0.00 58 1011.6
20260506093636 47 359 1.0 1.0 0.00 0.08 0.00 58 1011.5
20260506093137 47 3 3.0 1.0 0.00 0.08 0.00 58 1011.4
20260506092636 47 21 2.0 1.0 0.00 0.08 0.00 58 1011.4
20260506092137 46 46 1.0 1.0 0.00 0.08 0.00 58 1011.3
20260506091636 46 1 1.0 1.0 0.00 0.08 0.00 58 1011.6
20260506091137 46 1 2.0 1.0 0.00 0.08 0.00 58 1011.6
20260506090637 46 0 0.0 1.0 0.00 0.08 0.00 57 1011.7
20260506090138 46 0 0.0 1.0 0.00 0.08 0.00 57 1011.9
20260506085636 46 360 2.0 1.0 0.00 0.08 0.00 57 1011.6
20260506085136 47 56 2.0 1.0 0.00 0.08 0.00 57 1011.4
20260506084636 47 46 1.0 1.0 0.00 0.08 0.00 56 1011.4
20260506084136 47 43 1.0 1.0 0.00 0.08 0.00 56 1011.3
20260506083636 47 45 2.0 1.0 0.00 0.08 0.00 56 1011.4
20260506083136 47 24 2.0 1.0 0.00 0.08 0.00 55 1011.2
20260506082636 47 13 1.0 1.0 0.00 0.08 0.00 55 1011.3
20260506082137 47 359 1.0 2.0 0.00 0.08 0.00 54 1011.4
20260506081636 47 51 2.0 2.0 0.00 0.08 0.00 54 1011.3
20260506081137 47 34 2.0 2.0 0.00 0.08 0.00 54 1011.2
20260506080636 47 59 3.0 2.0 0.00 0.08 0.00 54 1011.1
20260506080136 47 53 1.0 2.0 0.00 0.08 0.00 53 1011.1
20260506073136 48 45 2.0 3.0 0.00 0.08 0.00 55 1010.9
20260506072636 48 30 2.0 3.0 0.00 0.08 0.00 55 1010.8
20260506072137 48 359 3.0 3.0 0.00 0.08 0.00 55 1010.8
20260506071636 48 69 2.0 3.0 0.00 0.08 0.00 54 1010.8
20260506071137 48 22 2.0 3.0 0.00 0.08 0.00 54 1010.8
20260506070636 48 357 7.0 4.0 0.00 0.08 0.00 54 1010.6
20260506070136 48 77 5.0 5.0 0.00 0.08 0.00 53 1010.6
20260506062136 50 74 5.0 4.0 0.00 0.08 0.00 51 1010.9
20260506061636 50 63 2.0 3.0 0.00 0.08 0.00 51 1010.9
20260506061136 50 29 2.0 3.0 0.00 0.08 0.00 51 1010.9
20260506060636 50 1 3.0 3.0 0.00 0.08 0.00 50 1011.1
20260506060137 50 329 2.0 4.0 0.00 0.08 0.00 50 1011.0
20260506051136 53 47 2.0 2.0 0.00 0.08 0.00 45 1010.1
20260506050636 53 0 0.0 2.0 0.00 0.08 0.00 45 1009.9
20260506050136 53 0 0.0 2.0 0.00 0.08 0.00 45 1010.0
20260506044636 53 18 2.0 2.0 0.00 0.08 0.08 46 1010.0
20260506044136 53 90 3.0 2.0 0.00 0.08 0.08 46 1010.3
20260506043636 53 357 2.0 2.0 0.00 0.08 0.08 47 1010.1
20260506043136 53 359 2.0 3.0 0.00 0.08 0.08 46 1010.2
20260506042636 54 343 2.0 3.0 0.00 0.08 0.08 45 1010.2
20260506042136 54 79 3.0 3.0 0.00 0.08 0.08 44 1010.2
20260506041636 54 360 1.0 3.0 0.00 0.08 0.08 43 1010.3
20260506041136 54 322 2.0 4.0 0.00 0.08 0.08 43 1010.1
20260506040637 54 350 3.0 3.0 0.00 0.08 0.08 43 1010.3
20260506040138 54 351 2.0 3.0 0.00 0.08 0.08 43 1010.0
20260506035637 54 330 2.0 3.0 0.00 0.08 0.08 43 1009.8
20260506035137 54 348 3.0 3.0 0.00 0.08 0.08 43 1009.9
20260506034637 54 308 2.0 2.0 0.00 0.08 0.08 43 1009.9
20260506034138 54 344 2.0 2.0 0.00 0.08 0.08 44 1009.9
20260506033637 54 0 0.0 2.0 0.00 0.08 0.08 44 1009.8
20260506033137 54 302 2.0 2.0 0.00 0.08 0.08 43 1009.6
20260506032637 54 290 1.0 2.0 0.00 0.08 0.08 43 1009.4
20260506032137 54 346 2.0 2.0 0.00 0.08 0.08 43 1009.4
20260506031637 54 324 3.0 3.0 0.00 0.08 0.08 43 1009.5
20260506031137 55 314 3.0 2.0 0.00 0.08 0.08 43 1009.4
20260506030637 54 303 2.0 2.0 0.00 0.08 0.08 43 1009.3
20260506030137 55 278 3.0 2.0 0.00 0.08 0.08 43 1009.3
20260506025637 55 297 1.0 2.0 0.00 0.08 0.08 42 1009.6
20260506025137 55 311 2.0 2.0 0.00 0.08 0.08 42 1009.5
20260506024637 55 321 2.0 2.0 0.00 0.08 0.08 42 1009.6
20260506024137 55 314 1.0 1.0 0.00 0.08 0.08 42 1009.6
20260506023636 55 283 1.0 1.0 0.00 0.08 0.08 42 1009.4
20260506023137 55 316 1.0 1.0 0.00 0.08 0.08 42 1009.3
20260506022637 55 308 1.0 1.0 0.00 0.08 0.08 42 1009.2
20260506022137 55 313 1.0 2.0 0.00 0.08 0.08 42 1009.3
20260506021637 55 283 2.0 2.0 0.00 0.08 0.08 41 1009.2
20260506021137 55 307 2.0 1.0 0.00 0.08 0.08 41 1009.1
20260506020637 55 0 0.0 2.0 0.00 0.08 0.08 41 1009.1